Location: Navajo
(48.7922°N, 105.0603°W)
Time: 11:25:36
(UTC+00:00)

KKS-1 - Pass Details

Date: 01 July 2022
Orbit: 634 x 649 km, 98.2° (Epoch: 18 August)

Event Time Altitude Azimuth Distance (km) Brightness Sun altitude
Rises 03:50:36 0° 30° (NNE) 2,978 ? -6.2°
Reaches altitude 10° 03:53:42 10° 52° (NE) 2,059 ? -6.5°
Maximum altitude 03:56:22 16° 89° (E) 1,712 ? -6.8°
Drops below altitude 10° 03:59:02 10° 126° (SE) 2,045 ? -7.1°
Enters shadow 03:59:28 - 131° (SE) 2,147 ? -7.1°
